Regional Weather Roundup
Issued by NWS Spokane, WA

Home | Current Version | Previous Version | Text Only | Print | Product List | Glossary On
Versions: 1 2 3 4 5 6 7 8 9 10 11 12 13 14 15 16 17 18 19 20 21 22 23 24 25 26 27 28 29 30 31 32 33 34 35 36 37 38 39 40 41 42 43 44 45 46 47 48 49 50
536
NZUS01 KOTX 251510
RWROTX

Eastern Washington/Northern Idaho Roundup
National Weather Service, Spokane WA
800 AM PDT THU AUG 25 2016

Note: "fair" indicated few or no clouds below 12,000 feet with no
significant weather and/or obstructions to visibility.

...Northeast Washington and Northern Idaho Panhandle...

CITY           SKY/WX    TMP DP  RH WIND       PRES   REMARKS
Spokane Intl   MOSUNNY   62  42  47 NE9       30.20R
Spokane Downto SUNNY     62  43  49 CALM      30.21R
Coeur d Alene  SUNNY     59  43  55 NE12      30.20R
Deer Park      SUNNY     63  41  44 NE6       30.21R
Sandpoint      SUNNY     55  43  62 NE5       30.23S
Bonners Ferry    N/A     50  41  71 CALM      30.25S

...Southeast Washington and southern Idaho Panhandle...

CITY           SKY/WX    TMP DP  RH WIND       PRES   REMARKS
Walla Walla    SUNNY     65  42  43 S9        30.12S
Pullman/Moscow SUNNY     57  40  52 CALM      30.19R HAZE
Lewiston       SUNNY     63  41  44 CALM      30.15S
Lowell           N/A     50  44  80 CALM      30.21F
Grangeville    FAIR      54  41  62 W3        30.18S

...Columbia Basin...

CITY           SKY/WX    TMP DP  RH WIND       PRES   REMARKS
Ephrata        SUNNY     68  40  35 NE5       30.15R
Moses Lake     SUNNY     63  41  44 N7        30.16R
Pasco          SUNNY     63  47  55 N5        30.13R
Richland       SUNNY     66  49  54 W3        30.13R
Hermiston      SUNNY     65  42  43 CALM      30.11S
Pendleton      SUNNY     60  39  45 SE7       30.13S

...East Slopes Cascades...

CITY           SKY/WX    TMP DP  RH WIND       PRES   REMARKS
The Dalles     SUNNY     63  40  42 SE5       30.11S
Yakima         SUNNY     68  42  38 CALM      30.16R
Ellensburg     SUNNY     60  45  57 E3        30.18S
Stampede Pass  SUNNY     65  40  39 CALM      30.27S
Wenatchee      SUNNY     63  44  50 W7        30.17R
Omak           SUNNY     65  36  34 N9        30.18S
Sunnyside        N/A     59  47  64 CALM      30.13R

...Southern British Columbia...

CITY           SKY/WX    TMP DP  RH WIND       PRES   REMARKS
Penticton      MOSUNNY   66  46  48 N5        30.20S
Castlegar      MOSUNNY   54  48  82 CALM      30.23S
Cranbrook      MOSUNNY   52  41  66 VRB2      30.28S
Osoyoos          N/A     61  54  77 N1          N/A
Creston          N/A     59  46  63 SW1         N/A

...Western Montana...

CITY           SKY/WX    TMP DP  RH WIND       PRES   REMARKS
Kalispell      MOSUNNY   53  42  66 N7        30.27S
Libby            N/A     50  36  57 CALM      30.28S
Missoula       SUNNY     54  38  54 SE8       30.29S

...Neighboring Cities...

CITY           SKY/WX    TMP DP  RH WIND       PRES   REMARKS
Seattle        MOSUNNY   66  54  65 CALM      30.15R
Portland       MOSUNNY   66  55  67 CALM      30.09S
Boise          SUNNY     66  34  30 SE12      30.13R
Great Falls    SUNNY     53  39  59 SW3       30.29S
Calgary        PTSUNNY   55  50  82 N7        30.29R



USA.gov is the U.S. government's official web portal to all federal, state and local government web resources and services.